Location: Grums
(59.3529°N, 13.1129°E)
Time: 14:48:39
(UTC+02:00)

ISS - Visible Passes

Search period start: 24 May 2019 00:00
Search period end: 03 June 2019 00:00
Orbit: 408 x 418 km, 51.6° (Epoch: 25 May)

Date Brightness Start Highest point End Pass type
(mag) Time Alt. Az. Time Alt. Az. Time Alt. Az.
24 May -1.9 01:06:33 10° SW 01:08:19 14° SSW 01:08:24 14° SSW visible
25 May -2.0 00:16:53 10° WSW 00:19:05 16° SSW 00:20:20 14° S visible
25 May -2.2 23:27:21 10° WSW 23:29:48 19° SSW 23:32:15 10° SSE visible
27 May -1.6 00:15:06 10° SW 00:16:19 12° SSW 00:17:09 11° SSW visible
27 May -1.7 23:25:09 10° WSW 23:27:04 14° SSW 23:28:58 10° SSE visible
